Regional Weather Roundup
Issued by NWS Wilmington, NC

Home | Current Version | Previous Version | Text Only | Print | Product List | Glossary On
Versions: 1 2 3 4 5 6 7 8 9 10 11 12 13 14 15 16 17 18 19 20 21 22 23 24 25 26 27 28 29 30 31 32 33 34 35 36 37 38 39 40 41 42 43 44 45 46 47 48 49 50
000
ASUS42 KILM 010710
RWRILM
RWRILM
REGIONAL HOURLY WEATHER ROUNDUP
NATIONAL WEATHER SERVICE WILMINGTON NC
300 AM EDT MON SEP 01 2014

NOTE: "FAIR" INDICATES FEW OR NO CLOUDS BELOW 12,000 FEET WITH NO
SIGNIFICANT WEATHER AND/OR OBSTRUCTIONS TO VISIBILITY.

...............WFO WILMINGTON COUNTY WARNING AREA...............

......COASTAL NC AND SC COUNTIES......

CITY           SKY/WX    TMP DP  RH WIND       PRES   REMARKS
WILMINGTON     CLEAR     75  74  96 S3        30.09F
SOUTHPORT      CLEAR     79  75  85 S5        30.09F
N MYRTLE BEACH PTCLDY    79  75  87 W3        30.08F
MYRTLE BEACH   CLEAR     81  73  78 SW3       30.09F

......INLAND NC AND SC COUNTIES.......

CITY           SKY/WX    TMP DP  RH WIND       PRES   REMARKS
LUMBERTON      PTCLDY    75  73  93 SE5       30.07F
ELIZABETHTOWN  PTCLDY    75  75  98 CALM      30.09F
WHITEVILLE     CLEAR     75  73  92 CALM      30.09F
FLORENCE       PTCLDY    77  73  87 S5        30.08F
DARLINGTON     PTCLDY    73  70  88 S3        30.09F

....................REST OF NORTH CAROLINA......................

.........EASTERN NC.........

CITY           SKY/WX    TMP DP  RH WIND       PRES   REMARKS
CAPE HATTERAS  PTCLDY    80  76  87 SW9G17    30.10F
JACKSONVILLE   CLEAR     73  70  88 SW3       30.09F
MOREHEAD CITY  CLEAR     81  76  84 S13       30.09F
KENANSVILLE    CLEAR     74  72  95 CALM      30.10F
NEW BERN       CLEAR     78  74  87 S3        30.10F
ELIZABETH CITY PTCLDY    77  75  93 S9        30.08F

.........CENTRAL NC.........

CITY           SKY/WX    TMP DP  RH WIND       PRES   REMARKS
RALEIGH DURHAM PTCLDY    77  71  82 SW6       30.08F
ROCKY MOUNT    PTCLDY    76  73  91 S5        30.08F
ROANOKE RAPIDS NOT AVBL
FAYETTEVILLE   MOCLDY    76  74  93 S7        30.07F
HOFFMAN        PTCLDY    75  73  95 S3        30.10F

.........WESTERN NC.........

CITY           SKY/WX    TMP DP  RH WIND       PRES   REMARKS
CHARLOTTE      CLOUDY    73  69  87 S5        30.10S
GREENSBORO     PTCLDY    73  70  90 CALM      30.08S
HICKORY        NOT AVBL
BOONE          NOT AVBL
ASHEVILLE      NOT AVBL

.....................REST OF SOUTH CAROLINA.....................

.........EASTERN SC.........

CITY           SKY/WX    TMP DP  RH WIND       PRES   REMARKS
CHARLESTON     PTCLDY    79  75  87 SW5       30.09F
BEAUFORT MCAS  MOCLDY    81  76  84 SW3       30.08F
HILTON HEAD    NOT AVBL

.........CENTRAL SC.........

CITY           SKY/WX    TMP DP  RH WIND       PRES   REMARKS
COLUMBIA       PTCLDY    75  72  90 W5        30.08F
ORANGEBURG     MOCLDY    74  71  91 S5        30.09F
SUMTER SHAW    MOCLDY    74  74  98 S5        30.07F

.........WESTERN SC.........

CITY           SKY/WX    TMP DP  RH WIND       PRES   REMARKS
GREENVILLE     NOT AVBL
ROCK HILL      PTCLDY    72  71  97 SW7       30.11S
ANDERSON       PTCLDY    73  71  93 S3        30.11R
CLEMSON        NOT AVBL
GREENWOOD      PTCLDY    75  70  84 SW3       30.11S


...................COASTAL AND OFFSHORE REPORTS..................

................LOCAL PIERS AND NC RESERVE................


STATION/POSITION TIME  SKY/WX   TEMP    WIND        PRES    VSBY
                                AIR SEA DIR/SP/G
                 (UTC)          (F)     (DEG/KT/KT) (MB)    (MI)
JOHNY MRCER PIER 0700            81 83  240/  4/  7 1018.5F
NC RESRV MASNBRO 0600            80     230/  2     1019.0S
OCEAN CREST PIER 0700            81 85  180/ 12/ 13 1018.1F
SPRINGMAID  PIER 0700            81 83  220/  7/  9 1018.8F


................COASTAL AND OFFSHORE BUOYS................


STATION/POSITION TIME  SKY/WX   TEMP    WIND        PRES    VSBY
                                AIR SEA DIR/SP/G
                 (UTC)          (F)     (DEG/KT/KT) (MB)    (MI)
DIMNDSHOAL 41025 0700            81     200/ 16/ 19 1019.4F
WVE H/P(F/S)=  3/ 8 WND WVE H/P(F/S)=  2/ 4 SWL H/P/D(F/S/D)=  2/120/ 8

CAPE LOOKOUT     0600            81     200/ 10/ 11 1019.6F
ONSLOW BAY 41036 0700            81 83  190/ 14/ 16 1019.4F
WVE H/P(F/S)=  3/ 9 WND WVE H/P(F/S)=  2/ 4 SWL H/P/D(F/S/D)=  2/110/ 9

5 WRITEBCH 41038 0600            78 82  220/ 12/ 14   N/A
MASONBORO  41110 0700               82                N/A
WVE H/P(F/S)=  3/ 8 WND WVE H/P(F/S)=  3/ 8

WILM HARBR 41108 0700               83                N/A
WVE H/P(F/S)=  3/ 9 WND WVE H/P(F/S)=  3/ 9

27WRITEBCH 41037 NOT AVBL
FRYING PAN 41013 NOT AVBL
SUNST NRSH 41024 0600            82     220/ 10/ 12 1018.9F
CAPRS NRSH 41029 NOT AVBL
EDISTO     41004 0700            82 83  220/ 10/ 12 1018.7F
WVE H/P(F/S)=  2/ 9 WND WVE H/P(F/S)=  2/ 4 SWL H/P/D(F/S/D)=  2/ 9



..........OFFSHORE BUOYS BEYOND 100 NM OFFSHORE...........
.....IN A TRIANGLE---HAT TO BERMUDA TO BAHAMAS TO HAT.....


STATION/POSITION TIME  SKY/WX   TEMP    WIND        PRES    VSBY
                                AIR SEA DIR/SP/G
                 (UTC)          (F)     (DEG/KT/KT) (MB)    (MI)
150E HAT   41001 NOT AVBL
W BERMUDA  41048 0608            78 79   CALM  /  2 1020.9F
WVE H/P(F/S)=  4/ 9 WND WVE H/P(F/S)=  2/ 4 SWL H/P/D(F/S/D)=  3/ 40/ 9

ATLANTIC S 41049 0615            83 85   90/  6/  8 1019.7F
WVE H/P(F/S)=  4/10 WND WVE H/P(F/S)=  2/ 3 SWL H/P/D(F/S/D)=  3/ 10/10

E BAHAMAS  41046 0603            81 84  100/ 12/ 14 1017.5F
WVE H/P(F/S)=  4/ 8 WND WVE H/P(F/S)=  3/ 5 SWL H/P/D(F/S/D)=  3/ 50/ 8

NE BAHAMAS 41047 0551            81 84  100/  6/  8 1020.2S
WVE H/P(F/S)=  4/ 9 WND WVE H/P(F/S)=  2/ 4 SWL H/P/D(F/S/D)=  3/100/ 9

120E CANVRL41010 0700            83 84  160/  4/  6 1019.8F
WVE H/P(F/S)=  3/ 9 WND WVE H/P(F/S)=  2/ 4 SWL H/P/D(F/S/D)=  3/100/ 9


END


USA.gov is the U.S. government's official web portal to all federal, state and local government web resources and services.